TimeMDT,TemperatureF,Dew PointF,Humidity,Sea Level PressureIn,VisibilityMPH,Wind Direction,Wind SpeedMPH,Gust SpeedMPH,PrecipitationIn,Events,Conditions,WindDirDegrees,DateUTC
12:53 AM,57.9,39.9,51,30.01,10.0,Calm,Calm,-,N/A,,Partly Cloudy,0,2013-09-06 06:53:00
1:53 AM,53.1,42.1,66,30.02,10.0,Calm,Calm,-,N/A,,Scattered Clouds,0,2013-09-06 07:53:00
2:53 AM,51.1,39.0,63,30.02,10.0,Calm,Calm,-,N/A,,Clear,0,2013-09-06 08:53:00
3:53 AM,48.9,39.9,71,30.02,10.0,Calm,Calm,-,N/A,,Clear,0,2013-09-06 09:53:00
4:53 AM,48.0,39.0,71,30.04,10.0,Calm,Calm,-,N/A,,Clear,0,2013-09-06 10:53:00
5:53 AM,46.9,37.0,68,30.04,10.0,Calm,Calm,-,N/A,,Clear,0,2013-09-06 11:53:00
6:53 AM,46.9,37.0,68,30.06,10.0,North,3.5,-,N/A,,Clear,10,2013-09-06 12:53:00
7:53 AM,48.9,39.0,69,30.09,10.0,Calm,Calm,-,N/A,,Clear,0,2013-09-06 13:53:00
8:53 AM,61.0,37.0,41,30.07,8.0,Calm,Calm,-,N/A,,Clear,0,2013-09-06 14:53:00
9:53 AM,70.0,41.0,35,30.04,10.0,Calm,Calm,-,N/A,,Clear,0,2013-09-06 15:53:00
10:53 AM,77.0,42.1,29,30.01,10.0,Variable,4.6,-,N/A,,Clear,0,2013-09-06 16:53:00
11:53 AM,81.0,37.9,21,29.99,10.0,South,8.1,-,N/A,,Clear,170,2013-09-06 17:53:00
12:53 PM,82.9,30.9,15,29.98,10.0,Variable,4.6,-,N/A,,Clear,0,2013-09-06 18:53:00
1:53 PM,84.9,30.0,14,29.97,10.0,Variable,6.9,-,N/A,,Partly Cloudy,0,2013-09-06 19:53:00
2:53 PM,84.0,26.1,12,29.95,10.0,SE,8.1,-,N/A,,Scattered Clouds,130,2013-09-06 20:53:00
3:53 PM,87.1,28.0,12,29.92,10.0,East,8.1,-,N/A,,Clear,100,2013-09-06 21:53:00
4:53 PM,84.0,27.0,13,29.91,10.0,South,4.6,-,N/A,,Clear,180,2013-09-06 22:53:00
5:53 PM,84.9,30.0,14,29.89,10.0,Variable,4.6,-,N/A,,Partly Cloudy,0,2013-09-06 23:53:00
6:53 PM,82.0,30.9,16,29.89,10.0,SSE,4.6,-,N/A,,Clear,150,2013-09-07 00:53:00
7:53 PM,75.9,39.0,26,29.92,9.0,ENE,4.6,-,N/A,,Scattered Clouds,60,2013-09-07 01:53:00
8:53 PM,71.1,41.0,34,29.91,9.0,NE,3.5,-,N/A,,Overcast,50,2013-09-07 02:53:00
9:53 PM,70.0,39.9,33,29.89,10.0,Calm,Calm,-,N/A,,Mostly Cloudy,0,2013-09-07 03:53:00
10:53 PM,66.0,39.9,38,29.88,10.0,Calm,Calm,-,N/A,,Mostly Cloudy,0,2013-09-07 04:53:00
11:53 PM,61.0,39.9,46,29.91,10.0,East,3.5,-,N/A,,Clear,80,2013-09-07 05:53:00